Weather History for Pensacola NAS, FL

Change the Weather History Date:

Wednesday, May 8, 2013

  Actual Average Record
Temperature  
Mean Temperature 65 °F -  
Max Temperature 77 °F 80 °F 90 °F (2002)
Min Temperature 53 °F 62 °F 52 °F (2007)
Growing Degree Days 15 (Base 50)    
Moisture  
Dew Point 60 °F    
Average Humidity 89    
Maximum Humidity 100    
Minimum Humidity 62    
Precipitation  
Precipitation 0.00 in - - ()
Sea Level Pressure  
Sea Level Pressure 30.07 in    
Wind  
Wind Speed 2 mph (SSW)    
Max Wind Speed 17 mph    
Max Gust Speed 20 mph    
Visibility 6 miles    
Events Fog , Rain    
Averages and records for this station are not official NWS values.
T = Trace of Precipitation, MM = Missing Value Source: NWS Daily Summary

Daily Weather History Graph

Daily Weather History Graph

Search for Another Location

Airport:

Trip Planner

Search our weather history database for the weather conditions in past years. The results will help you decide how hot, cold, wet, or windy it might be!

Date:

Astronomy

May. 08, 2013 Rise Set
Actual Time 5:59 AM CDT 7:32 PM CDT
Civil Twilight 5:34 AM CDT 7:57 PM CDT
Nautical Twilight 5:03 AM CDT 8:29 PM CDT
Astronomical Twilight 4:30 AM CDT 9:01 PM CDT
Moon 5:02 AM CDT (5/8) 6:33 PM CDT (5/8)
Length of Visible Light 14h 23m
Length of Day
13h 32m
Waning Crescent, 2% of the Moon is Illuminated
May 8
Waning Crescent
May 9
New
May 17
First Quarter
May 24
Full
May 31
Last Quarter

Hourly Weather History & Observations

Time (CDT) Temp. Dew Point Humidity Pressure Visibility Wind Dir Wind Speed Gust Speed Precip Events Conditions
12:56 AM 57.0 °F 55.0 °F 93% 30.05 in 7.0 mi Calm Calm - 0.00 in Rain Light Rain
1:56 AM 55.9 °F 55.0 °F 97% 30.03 in 8.0 mi Calm Calm - 0.00 in   Clear
2:56 AM 55.9 °F 55.0 °F 97% 30.02 in 9.0 mi Calm Calm - 0.00 in   Clear
3:10 AM 55.4 °F 53.6 °F 94% 30.01 in 7.0 mi Calm Calm - N/A   Scattered Clouds
3:20 AM 55.4 °F 53.6 °F 94% 30.02 in 6.0 mi Calm Calm - N/A   Mostly Cloudy
3:33 AM 55.4 °F 53.6 °F 94% 30.02 in 1.2 mi Calm Calm - N/A   Overcast
3:39 AM 55.4 °F 55.4 °F 100% 30.02 in 0.2 mi Calm Calm - N/A Fog Fog
3:56 AM 55.0 °F 55.0 °F 100% 30.03 in 0.2 mi Calm Calm - 0.00 in Fog , Rain Light Rain
4:40 AM 55.4 °F 55.4 °F 100% 30.03 in 0.5 mi Calm Calm - 0.00 in Fog Fog
4:56 AM 54.0 °F 54.0 °F 100% 30.03 in 0.2 mi Calm Calm - 0.00 in Fog Fog
5:45 AM 53.6 °F 53.6 °F 100% 30.04 in 0.2 mi Calm Calm - 0.00 in Fog Fog
5:56 AM 55.9 °F 55.0 °F 97% 30.05 in 0.2 mi Calm Calm - N/A Fog Fog
6:38 AM 57.2 °F 57.2 °F 100% 30.07 in 0.2 mi Calm Calm - 0.00 in Fog Fog
6:56 AM 59.0 °F 59.0 °F 100% 30.08 in 0.2 mi Calm Calm - N/A Fog Fog
7:56 AM 62.1 °F 62.1 °F 100% 30.09 in 0.2 mi Calm Calm - N/A Fog Fog
8:34 AM 64.4 °F 64.4 °F 100% 30.09 in 2.5 mi Calm Calm - N/A   Mostly Cloudy
8:39 AM 64.4 °F 64.4 °F 100% 30.09 in 2.5 mi Calm Calm - N/A   Mostly Cloudy
8:45 AM 64.4 °F 64.4 °F 100% 30.09 in 4.0 mi Calm Calm - N/A   Mostly Cloudy
8:56 AM 66.0 °F 64.9 °F 96% 30.10 in 5.0 mi Calm Calm - N/A   Mostly Cloudy
9:56 AM 71.1 °F 64.0 °F 78% 30.11 in 10.0 mi SSE 4.6 mph - N/A   Mostly Cloudy
10:56 AM 71.1 °F 64.9 °F 81% 30.13 in 10.0 mi SSE 9.2 mph - N/A   Mostly Cloudy
11:56 AM 73.9 °F 62.1 °F 66% 30.13 in 10.0 mi SSE 11.5 mph - N/A   Mostly Cloudy
12:56 PM 75.9 °F 62.1 °F 62% 30.11 in 10.0 mi South 11.5 mph - N/A   Mostly Cloudy
1:56 PM 77.0 °F 64.9 °F 66% 30.11 in 10.0 mi South 13.8 mph - N/A   Mostly Cloudy
2:56 PM 75.9 °F 66.0 °F 71% 30.09 in 10.0 mi SSW 13.8 mph - N/A   Mostly Cloudy
3:56 PM 75.0 °F 64.9 °F 71% 30.08 in 10.0 mi SSW 15.0 mph - N/A   Scattered Clouds
4:56 PM 73.9 °F 66.0 °F 76% 30.07 in 10.0 mi SSW 17.3 mph - N/A   Scattered Clouds
5:56 PM 73.0 °F 66.0 °F 79% 30.07 in 10.0 mi SW 11.5 mph 19.6 mph N/A   Scattered Clouds
6:56 PM 71.1 °F 64.9 °F 81% 30.07 in 10.0 mi SW 10.4 mph - N/A   Scattered Clouds
7:56 PM 69.1 °F 64.9 °F 87% 30.09 in 10.0 mi WSW 3.5 mph - N/A   Scattered Clouds
8:56 PM 66.9 °F 64.9 °F 93% 30.10 in 10.0 mi WSW 3.5 mph - N/A   Clear
9:56 PM 66.9 °F 62.1 °F 84% 30.11 in 10.0 mi WSW 4.6 mph - N/A   Clear
10:56 PM 64.9 °F 61.0 °F 87% 30.12 in 10.0 mi Calm Calm - N/A   Clear
11:56 PM 66.0 °F 63.0 °F 90% 30.11 in 10.0 mi WSW 3.5 mph - N/A   Clear